Simultaneous Nadir Overpasses (SNOs) Predictions

Prediction of SNOs between METOP-A and NOAA-19 Satellite Orbit:

Table of predicted SNOs for the next 14.0 days since TLE Epoch: 8/28/2021
Index Date (METOP-A) Time (METOP-A) Lat,Lon (METOP-A) SZA (METOP-A ) Date (NOAA-19) Time (NOAA-19) Lat,Lon (NOAA-19) SZA (NOAA-19 ) Distance(km) Time Diff (sec)
1 08/30/2021 19:21:01 80.64,-106.48 71.90 08/30/2021 19:19:49 80.64,-106.51 71.90 0.80 72
2 08/30/2021 20:11:42 -80.64, 60.92 108.08 08/30/2021 20:10:50 -80.65, 60.90 108.08 0.73 52
3 08/30/2021 21:02:22 80.65,-131.64 71.94 08/30/2021 21:01:48 80.66,-131.56 71.95 1.68 34
4 08/30/2021 21:53:02 -80.66, 35.76 108.04 08/30/2021 21:52:48 -80.66, 35.84 108.04 1.75 14
5 08/30/2021 22:43:42 80.66,-156.80 71.98 08/30/2021 22:43:47 80.66,-156.96 71.98 2.88 5
6 08/30/2021 23:34:23 -80.67, 10.59 108.00 08/30/2021 23:34:48 -80.67, 10.43 108.01 2.92 25
7 08/31/2021 00:25:03 80.68, 178.03 72.03 08/31/2021 00:25:46 80.68, 177.99 72.03 0.80 43
8 08/31/2021 01:15:44 -80.68, -14.57 107.96 08/31/2021 01:16:47 -80.68, -14.62 107.96 0.94 63
9 09/10/2021 22:15:39 80.60,-150.86 76.00 09/10/2021 22:14:27 80.60,-150.77 75.99 1.66 72
10 09/10/2021 23:06:21 -80.59, 16.32 104.01 09/10/2021 23:05:26 -80.60, 16.39 104.00 1.57 55
11 09/10/2021 23:57:00 80.62,-176.02 76.04 09/10/2021 23:56:27 80.61,-176.17 76.02 2.96 33
12 09/11/2021 00:47:41 -80.63, -8.52 103.94 09/11/2021 00:47:25 -80.62, -8.67 103.95 3.19 16
13 09/11/2021 01:38:21 80.63, 158.81 76.08 09/11/2021 01:38:26 80.62, 158.77 76.07 1.08 5
14 09/11/2021 02:29:03 -80.62, -34.01 103.92 09/11/2021 02:29:25 -80.62, -34.08 103.92 1.27 22
15 09/11/2021 03:19:43 80.62, 133.32 76.09 09/11/2021 03:20:26 80.63, 133.37 76.11 1.26 43



Historial Predications of SNOs between METOP-A and NOAA-19
